Retour au catalogue

KUIPER-00608

ActifCommunicationsLEO
NORAD 69291·PAYLOAD·🇺🇸 United States

Lancé May 29, 2026 depuis Vandenberg Space Force Base

Loading…

Prochains Passages (prochaines 24 heures)

TLE

FraisSource: CelesTrak SupGP

Époque: Sep 14, 2026, 23:12 UTC

1 69291C 26118AA  26257.96688657  .00002417  00000+0  31643-3 0  2572
2 69291  51.9015 351.0291 0000962  69.2332 201.1950 14.79923395    14

Suivez KUIPER-00608 en temps réel avec AllMySat

Download on the App Store